EN

Hourly Weather Lukashevka

Today, 14 May, Friday

Time Temperature Precipitation Wind Pressure Humidity
00:00 +10°C° 0 mm 2 mps 749 mmHg 80%
01:00 +10°C° 0 mm 2 mps 749 mmHg 78%
02:00 +10°C° 0 mm 2 mps 749 mmHg 76%
03:00 +9°C° 0 mm 2 mps 749 mmHg 73%
04:00 +10°C° 0 mm 2 mps 749 mmHg 73%
05:00 +10°C° 0 mm 2 mps 750 mmHg 73%
06:00 +10°C° 0 mm 2 mps 750 mmHg 73%
07:00 +14°C° 0 mm 2 mps 750 mmHg 65%
08:00 +16°C° 0 mm 3 mps 750 mmHg 57%
09:00 +18°C° 0 mm 3 mps 750 mmHg 50%
10:00 +20°C° 0 mm 3 mps 750 mmHg 47%
11:00 +21°C° 0 mm 3 mps 750 mmHg 44%
12:00 +24°C° 0 mm 3 mps 750 mmHg 41%
13:00 +23°C° 0 mm 4 mps 749 mmHg 41%
14:00 +23°C° 0 mm 5 mps 748 mmHg 41%
15:00 +25°C° 0 mm 5 mps 748 mmHg 41%
16:00 +22°C° 0 mm 5 mps 748 mmHg 48%
17:00 +21°C° 0 mm 6 mps 747 mmHg 54%
18:00 +19°C° 0 mm 6 mps 747 mmHg 61%
19:00 +17°C° 0 mm 6 mps 747 mmHg 62%
20:00 +16°C° 0 mm 7 mps 748 mmHg 63%
21:00 +15°C° 0 mm 7 mps 748 mmHg 64%
22:00 +14°C° 0 mm 7 mps 747 mmHg 63%
23:00 +14°C° 0 mm 7 mps 747 mmHg 62%

Tomorrow, 15 May, Saturday

Time Temperature Precipitation Wind Pressure Humidity
00:00 +14°C° 0 mm 7 mps 747 mmHg 61%
01:00 +12°C° 0 mm 7 mps 746 mmHg 66%
02:00 +12°C° 0 mm 8 mps 746 mmHg 70%
03:00 +12°C° 0 mm 8 mps 746 mmHg 74%
04:00 +12°C° 0 mm 8 mps 746 mmHg 76%
05:00 +12°C° 0 mm 8 mps 745 mmHg 79%
06:00 +11°C° 0 mm 8 mps 745 mmHg 81%
07:00 +13°C° 0 mm 8 mps 745 mmHg 77%
08:00 +16°C° 0 mm 8 mps 745 mmHg 73%
09:00 +17°C° 0 mm 9 mps 745 mmHg 69%
10:00 +18°C° 0 mm 8 mps 745 mmHg 66%
11:00 +21°C° 0 mm 8 mps 744 mmHg 64%
12:00 +22°C° 0 mm 8 mps 744 mmHg 62%
13:00 +20°C° 0.6 mm 6 mps 744 mmHg 69%
14:00 +17°C° 0.6 mm 5 mps 745 mmHg 76%
15:00 +17°C° 0.6 mm 3 mps 745 mmHg 83%
16:00 +16°C° 1.2 mm 3 mps 746 mmHg 83%
17:00 +13°C° 1.2 mm 3 mps 746 mmHg 83%
18:00 +12°C° 1.2 mm 3 mps 747 mmHg 84%
19:00 +12°C° 0.2 mm 3 mps 747 mmHg 84%
20:00 +12°C° 0.2 mm 3 mps 748 mmHg 84%
21:00 +11°C° 0.2 mm 3 mps 748 mmHg 85%
22:00 +11°C° 0 mm 3 mps 748 mmHg 85%
23:00 +11°C° 0 mm 3 mps 748 mmHg 86%

Day after tomorrow, 16 May, Sunday

Time Temperature Precipitation Wind Pressure Humidity
00:00 +10°C° 0 mm 3 mps 748 mmHg 87%
01:00 +10°C° 0 mm 3 mps 748 mmHg 87%
02:00 +9°C° 0 mm 2 mps 747 mmHg 87%
03:00 +9°C° 0 mm 2 mps 747 mmHg 87%
04:00 +9°C° 0 mm 2 mps 747 mmHg 84%
05:00 +9°C° 0 mm 2 mps 747 mmHg 81%
06:00 +11°C° 0 mm 1 mps 747 mmHg 78%
07:00 +13°C° 0 mm 1 mps 747 mmHg 68%
08:00 +15°C° 0 mm 1 mps 747 mmHg 57%
09:00 +19°C° 0 mm 1 mps 747 mmHg 47%
10:00 +20°C° 0 mm 1 mps 747 mmHg 42%
11:00 +21°C° 0 mm 1 mps 746 mmHg 37%
12:00 +23°C° 0 mm 1 mps 746 mmHg 31%
13:00 +23°C° 0 mm 1 mps 746 mmHg 30%
14:00 +23°C° 0 mm 2 mps 745 mmHg 29%
15:00 +24°C° 0 mm 2 mps 745 mmHg 29%
16:00 +23°C° 0 mm 2 mps 745 mmHg 36%
17:00 +21°C° 0 mm 2 mps 744 mmHg 43%
18:00 +20°C° 0 mm 2 mps 744 mmHg 49%
19:00 +18°C° 0 mm 2 mps 745 mmHg 52%
20:00 +17°C° 0 mm 2 mps 745 mmHg 55%
21:00 +15°C° 0 mm 2 mps 745 mmHg 58%
22:00 +15°C° 0 mm 2 mps 745 mmHg 58%
23:00 +14°C° 0 mm 2 mps 745 mmHg 58%

17 May, Monday

Time Temperature Precipitation Wind Pressure Humidity
00:00 +14°C° 0 mm 2 mps 745 mmHg 58%
01:00 +13°C° 0 mm 2 mps 745 mmHg 58%
02:00 +13°C° 0 mm 2 mps 744 mmHg 58%
03:00 +12°C° 0 mm 2 mps 744 mmHg 58%
04:00 +12°C° 0 mm 2 mps 744 mmHg 59%
05:00 +12°C° 0 mm 2 mps 744 mmHg 60%
06:00 +12°C° 0 mm 2 mps 745 mmHg 61%
07:00 +15°C° 0 mm 2 mps 745 mmHg 53%
08:00 +18°C° 0 mm 2 mps 745 mmHg 44%
09:00 +20°C° 0 mm 2 mps 745 mmHg 36%
10:00 +21°C° 0 mm 2 mps 745 mmHg 32%
11:00 +23°C° 0 mm 2 mps 745 mmHg 29%
12:00 +25°C° 0 mm 2 mps 745 mmHg 26%
13:00 +25°C° 0 mm 2 mps 744 mmHg 27%
14:00 +25°C° 0 mm 3 mps 744 mmHg 27%
15:00 +25°C° 0 mm 3 mps 744 mmHg 28%
16:00 +24°C° 0 mm 3 mps 744 mmHg 35%
17:00 +22°C° 0 mm 3 mps 744 mmHg 42%
18:00 +20°C° 0 mm 2 mps 744 mmHg 48%
19:00 +19°C° 0 mm 2 mps 745 mmHg 50%
20:00 +19°C° 0 mm 1 mps 745 mmHg 52%
21:00 +18°C° 0 mm 1 mps 745 mmHg 54%
22:00 +16°C° 0 mm 1 mps 745 mmHg 54%
23:00 +16°C° 0 mm 1 mps 745 mmHg 55%

18 May, Tuesday

Time Temperature Precipitation Wind Pressure Humidity
00:00 +16°C° 0 mm 1 mps 745 mmHg 55%
01:00 +15°C° 0 mm 1 mps 745 mmHg 56%
02:00 +15°C° 0 mm 1 mps 745 mmHg 57%
03:00 +15°C° 0 mm 2 mps 745 mmHg 58%
04:00 +15°C° 0 mm 2 mps 744 mmHg 60%
05:00 +15°C° 0 mm 2 mps 744 mmHg 61%
06:00 +14°C° 0 mm 2 mps 744 mmHg 62%
07:00 +16°C° 0 mm 2 mps 744 mmHg 58%
08:00 +17°C° 0 mm 3 mps 744 mmHg 54%
09:00 +18°C° 0 mm 4 mps 744 mmHg 50%
10:00 +20°C° 0 mm 4 mps 744 mmHg 48%
11:00 +22°C° 0 mm 5 mps 744 mmHg 45%
12:00 +23°C° 0 mm 5 mps 744 mmHg 42%
13:00 +23°C° 0 mm 6 mps 743 mmHg 43%
14:00 +23°C° 0 mm 7 mps 743 mmHg 43%
15:00 +23°C° 0 mm 7 mps 742 mmHg 44%
16:00 +21°C° 0.2 mm 7 mps 742 mmHg 50%
17:00 +18°C° 0.2 mm 7 mps 742 mmHg 57%
18:00 +16°C° 0.2 mm 6 mps 742 mmHg 63%
19:00 +15°C° 0 mm 6 mps 743 mmHg 67%
20:00 +14°C° 0 mm 5 mps 743 mmHg 71%
21:00 +12°C° 0 mm 5 mps 744 mmHg 75%
22:00 +12°C° 0 mm 5 mps 743 mmHg 77%
23:00 +10°C° 0 mm 5 mps 743 mmHg 78%

19 May, Wednesday

Time Temperature Precipitation Wind Pressure Humidity
00:00 +10°C° 0 mm 5 mps 743 mmHg 80%
01:00 +10°C° 0 mm 5 mps 743 mmHg 82%
02:00 +9°C° 0 mm 5 mps 743 mmHg 84%
03:00 +9°C° 0 mm 5 mps 743 mmHg 86%
04:00 +9°C° 0 mm 5 mps 743 mmHg 85%
05:00 +11°C° 0 mm 4 mps 744 mmHg 85%
06:00 +11°C° 0 mm 4 mps 744 mmHg 84%
07:00 +14°C° 0 mm 4 mps 744 mmHg 75%
08:00 +18°C° 0 mm 3 mps 744 mmHg 65%
09:00 +20°C° 0 mm 3 mps 745 mmHg 56%
10:00 +22°C° 0 mm 3 mps 745 mmHg 51%
11:00 +25°C° 0 mm 2 mps 745 mmHg 46%
12:00 +27°C° 0 mm 2 mps 745 mmHg 41%
13:00 +27°C° 0 mm 3 mps 745 mmHg 42%
14:00 +27°C° 0 mm 3 mps 745 mmHg 44%
15:00 +27°C° 0 mm 4 mps 745 mmHg 45%
16:00 +25°C° 0.5 mm 3 mps 745 mmHg 53%
17:00 +24°C° 0.5 mm 3 mps 745 mmHg 60%
18:00 +21°C° 0.5 mm 2 mps 746 mmHg 68%
19:00 +20°C° 0.3 mm 2 mps 746 mmHg 73%
20:00 +18°C° 0.3 mm 2 mps 746 mmHg 79%
21:00 +18°C° 0.3 mm 1 mps 747 mmHg 84%
22:00 +16°C° 0.1 mm 2 mps 747 mmHg 85%
23:00 +15°C° 0.1 mm 2 mps 747 mmHg 86%
Show more